Simultaneous Nadir Overpasses (SNOs) Predictions

Prediction of SNOs between GOES-15 and TERRA Satellite Orbit:

Table of predicted SNOs for the next 14.0 days since TLE Epoch: 3/23/2024
Index Date Time (GOES-15) GOES-15 Lat,Lon TERRA Lat,Lon Distance(km) Time Diff (sec)
1 03/23/2024 17:37:33 0.05, 61.18 0.47, 63.22 232.43 80
2 03/24/2024 05:57:34 -0.05, 61.22 0.57, 58.36 326.09 80
3 03/26/2024 05:43:12 -0.05, 61.23 -0.31, 62.46 140.63 80
4 03/26/2024 18:03:21 0.06, 61.18 -0.68, 57.56 410.84 80
5 03/28/2024 17:43:38 0.06, 61.19 0.19, 61.67 55.23 80
6 03/31/2024 05:46:35 -0.07, 61.27 -0.02, 60.92 38.99 80
7 04/02/2024 05:32:10 -0.07, 61.30 -0.85, 65.05 425.91 80
8 04/02/2024 17:52:18 0.08, 61.25 -0.18, 60.15 125.66 80
9 04/04/2024 17:32:33 0.08, 61.28 0.69, 64.27 338.95 80
10 04/05/2024 05:52:33 -0.09, 61.35 0.29, 59.40 221.06 80
